Voltar ao catálogo

PSLV DEB

LostSSO
NORAD 35537·DEBRIS·🇮🇳 India

Lançado Oct 22, 2001 de Satish Dhawan Space Centre

Loading…

Próximas Passagens (próximas 24 horas)

TLE

ObsoletoSource: Space-Track

Época: Apr 2, 2011, 03:37 UTC

1 35537U 01049QM  11092.15069828  .00000197  00000-0  75856-4 0  9991
2 35537  98.2031  67.3711 0090567  49.9616 311.3399 14.37725730338478

Acompanhe PSLV DEB em tempo real com AllMySat

Download on the App Store